(342523) = 2008 UK204

Discovered at Kitt Peak on 2008-10-26 by Spacewatch.

Orbit

Orbit type: Main Belt

Note: WebGL enabled browser required.

epoch2023-02-25.0
epoch JD2460000.5
perihelion date2019-12-22.74979
perihelion JD2458840.24979
argument of perihelion (°)261.57952
ascending node (°)24.55707
inclination (°)9.26739
eccentricity0.1679397
perihelion distance (AU)2.1351437
Tisserand w.r.t. Jupiter3.4
ΔV w.r.t. Earth (km/sec)9.6
semimajor axis (AU)2.5660924
mean anomaly (°)278.19356
mean daily motion (°/day)0.23977030
aphelion distance (AU)2.997
period (years)4.11
P-vector [x]0.27256210
P-vector [y]-0.80719185
P-vector [z]-0.52359451
Q-vector [x]0.95980748
Q-vector [y]0.26596974
Q-vector [z]0.08960854
absolute magnitude16.01
phase slope0.15
uncertainty0
referenceMPO 745323
observations used776
oppositions12
arc length (days)7761
first opposition used2002
last opposition used2023
residual rms (arc-secs)0.75
perturbers coarse indicatorM-v
perturbers precise indicator003Ek
first observation date used2002-03-11.0
last observation date used2023-06-10.0
computer nameMPCLINUX
JD of orbit computation2456700.207689
perihelion JD uncertainty (days)2.0829E-04
argument of perihelion uncertainty (°)7.3758E-05
ascending node uncertainty (°)5.2752E-05
inclination uncertainty (°)1.7131E-05
eccentricity uncertainty 1.0541E-07
perihelion distance uncertainty (AU)2.6309E-07
Minimum Orbit Intersection Distances (in AU)
for orbit epoch: 2460000.5, reference: E2023-L52
Mercury1.67903
Venus1.41671
Earth1.14242
Mars0.71737
Jupiter2.21607
Saturn6.1375
Uranus15.6385
Neptune27.1099

Observations

761 total observations over interval: 2002 03 11.24953 – 2023 06 10.237452
These data are available for download (format description).

Date (UT) J2000 RA J2000 Dec Magn Location Ref
2002 03 11.24953 10 00 27.07 +23 48 05.8 20.7   644 – Palomar Mountain/NEAT MPS 431954
2002 03 11.27083 10 00 25.87 +23 48 06.9 21.1   644 – Palomar Mountain/NEAT MPS 431954
2002 03 11.29193 10 00 24.78 +23 48 07.5 21.3   644 – Palomar Mountain/NEAT MPS 431954
2008 10 26.21404 03 19 17.85 +23 44 31.0 20.0 V 691 – Steward Observatory, Kitt Peak-Spacewatch MPS 267695
2008 10 26.23175 03 19 16.77 +23 44 31.2 20.0 V 691 – Steward Observatory, Kitt Peak-Spacewatch MPS 267695
2008 10 26.24946 03 19 15.71 +23 44 31.5 20.1 V 691 – Steward Observatory, Kitt Peak-Spacewatch MPS 267695
2008 10 28.30507 03 17 12.30 +23 44 31.0 19.8   704 – Lincoln Laboratory ETS, New Mexico MPS 263573
2008 10 28.32798 03 17 10.92 +23 44 31.6 20.2   704 – Lincoln Laboratory ETS, New Mexico MPS 263573
2008 10 28.35096 03 17 09.46 +23 44 31.3 20.0   704 – Lincoln Laboratory ETS, New Mexico MPS 263573
2008 10 30.22437 03 15 14.25 +23 44 04.0 19.8 V 691 – Steward Observatory, Kitt Peak-Spacewatch MPS 263573
2008 10 30.24209 03 15 13.12 +23 44 03.8 19.8 V 691 – Steward Observatory, Kitt Peak-Spacewatch MPS 263573
2008 10 30.25980 03 15 11.98 +23 44 03.5 19.8 V 691 – Steward Observatory, Kitt Peak-Spacewatch MPS 263573
2008 11 02.25860 03 12 02.21 +23 42 29.6 20.0   704 – Lincoln Laboratory ETS, New Mexico MPS 263573
2008 11 02.27050 03 12 01.38 +23 42 29.5 19.7   704 – Lincoln Laboratory ETS, New Mexico MPS 263573
2008 11 02.29451 03 11 59.87 +23 42 28.2 20.0   704 – Lincoln Laboratory ETS, New Mexico MPS 263573
2008 11 02.30631 03 11 58.98 +23 42 27.7 20.2   704 – Lincoln Laboratory ETS, New Mexico MPS 263573
2008 11 09.21686 03 04 28.82 +23 35 09.0 19.8 V 691 – Steward Observatory, Kitt Peak-Spacewatch MPS 264719
2008 11 09.23450 03 04 27.61 +23 35 07.5 19.6 V 691 – Steward Observatory, Kitt Peak-Spacewatch MPS 264719
2008 11 09.25214 03 04 26.45 +23 35 06.1 19.7 V 691 – Steward Observatory, Kitt Peak-Spacewatch MPS 264719
2008 11 18.15474 02 54 53.02 +23 19 27.6 19.8 V 703 – Catalina Sky Survey MPS 265371
2008 11 18.16200 02 54 52.52 +23 19 26.1 19.9 V 703 – Catalina Sky Survey MPS 265371
2008 11 18.16926 02 54 52.20 +23 19 25.9 20.3 V 703 – Catalina Sky Survey MPS 265371
2008 11 18.17643 02 54 51.66 +23 19 24.7 19.5 V 703 – Catalina Sky Survey MPS 265371
2008 11 30.26247 02 43 25.71 +22 52 06.7 19.9 V 703 – Catalina Sky Survey MPS 267695
2008 11 30.27319 02 43 25.10 +22 52 05.6 19.9 V 703 – Catalina Sky Survey MPS 267695
2008 11 30.28402 02 43 24.60 +22 52 03.6 20.4 V 703 – Catalina Sky Survey MPS 267695
2008 11 30.29477 02 43 24.02 +22 52 02.3 19.9 V 703 – Catalina Sky Survey MPS 267695
2011 01 30.63408 15 20 38.009 -19 07 16.87 20.7 w F51 – Pan-STARRS 1, Haleakala MPS 384701
2011 01 30.63961 15 20 38.457 -19 07 19.55 20.8 w F51 – Pan-STARRS 1, Haleakala MPS 384701
2011 01 30.64580 15 20 38.956 -19 07 22.50 20.8 w F51 – Pan-STARRS 1, Haleakala MPS 384702
2011 01 30.65133 15 20 39.417 -19 07 25.33 20.7 w F51 – Pan-STARRS 1, Haleakala MPS 384702
2011 05 14.28775 15 59 53.31 -30 14 28.6 18.6 R 926 – Tenagra II Observatory, Nogales MPS 384702
2011 05 14.29955 15 59 52.59 -30 14 31.4 18.3 R 926 – Tenagra II Observatory, Nogales MPS 384702
2011 05 14.30990 15 59 51.88 -30 14 30.8 19.0 R 926 – Tenagra II Observatory, Nogales MPS 384702
2011 05 23.32352 15 50 02.71 -30 36 52.8 18.3 R 926 – Tenagra II Observatory, Nogales MPS 384702
2011 05 23.33704 15 50 01.76 -30 36 54.4 18.6 R 926 – Tenagra II Observatory, Nogales MPS 384702
2011 05 23.35093 15 50 00.78 -30 36 56.4 18.4 R 926 – Tenagra II Observatory, Nogales MPS 384702
2011 06 02.57918 15 38 48.24 -30 46 35.3   E12 – Siding Spring Survey MPS 384702
2011 06 02.59201 15 38 47.40 -30 46 36.1   E12 – Siding Spring Survey MPS 384702
2011 06 02.60501 15 38 46.57 -30 46 36.0   E12 – Siding Spring Survey MPS 384702
2011 06 02.61799 15 38 45.64 -30 46 34.9 18.3 V E12 – Siding Spring Survey MPS 384702
2011 06 10.51681 15 31 08.76 -30 44 43.0 18.8 V E12 – Siding Spring Survey MPS 384702
2011 06 10.52962 15 31 08.04 -30 44 42.7 18.6 V E12 – Siding Spring Survey MPS 384702
2011 06 10.54249 15 31 07.32 -30 44 42.0 18.2 V E12 – Siding Spring Survey MPS 384702
2012 08 28.41751 02 55 55.63 +16 40 43.5 20.2 V G96 – Mt. Lemmon Survey MPS 431954
2012 08 28.42266 02 55 55.74 +16 40 45.0 20.3 V G96 – Mt. Lemmon Survey MPS 431954
2012 08 28.42793 02 55 55.81 +16 40 46.5 19.9 V G96 – Mt. Lemmon Survey MPS 431954
2012 08 28.43318 02 55 55.92 +16 40 47.7 20.3 V G96 – Mt. Lemmon Survey MPS 431954
2012 09 14.41589 02 57 22.24 +17 41 48.9 20.1 V G96 – Mt. Lemmon Survey MPS 431954
2012 09 14.42110 02 57 22.17 +17 41 49.7 20.0 V G96 – Mt. Lemmon Survey MPS 431954
2012 09 14.42637 02 57 22.14 +17 41 50.7 20.0 V G96 – Mt. Lemmon Survey MPS 431954
2012 09 14.43163 02 57 22.06 +17 41 51.7 19.5 V G96 – Mt. Lemmon Survey MPS 431954
2012 10 08.37844 02 45 26.82 +18 20 04.6 19.1 V G96 – Mt. Lemmon Survey MPS 434178
2012 10 08.38764 02 45 26.35 +18 20 04.7 19.1 V G96 – Mt. Lemmon Survey MPS 434178
2012 10 08.39685 02 45 25.88 +18 20 04.9 19.6 V G96 – Mt. Lemmon Survey MPS 434178
2012 10 15.26344 02 39 21.89 +18 19 28.8 20.0 V 691 – Steward Observatory, Kitt Peak-Spacewatch MPS 435233
2012 10 15.28459 02 39 20.65 +18 19 28.1 19.8 V 691 – Steward Observatory, Kitt Peak-Spacewatch MPS 435233
2012 10 15.28687 02 39 20.54 +18 19 29.1 19.4   704 – Lincoln Laboratory ETS, New Mexico MPS 435233
2012 10 15.30575 02 39 19.40 +18 19 27.7 19.8 V 691 – Steward Observatory, Kitt Peak-Spacewatch MPS 435233
2012 10 15.31424 02 39 18.95 +18 19 29.1 19.8   704 – Lincoln Laboratory ETS, New Mexico MPS 435233
2012 10 15.32793 02 39 18.16 +18 19 26.5 19.9   704 – Lincoln Laboratory ETS, New Mexico MPS 435233
2012 10 15.34155 02 39 17.36 +18 19 27.5 19.4   704 – Lincoln Laboratory ETS, New Mexico MPS 435233
2012 11 03.37574 02 19 35.83 +17 54 15.9 19.0 V G96 – Mt. Lemmon Survey MPS 441650
2012 11 03.38289 02 19 35.32 +17 54 15.1 19.1 V G96 – Mt. Lemmon Survey MPS 441650
2012 11 03.38994 02 19 34.93 +17 54 14.0 18.9 V G96 – Mt. Lemmon Survey MPS 441650
2012 11 03.39866 02 19 34.35 +17 54 12.9 19.3 V G96 – Mt. Lemmon Survey MPS 441650
2012 11 12.27522 02 10 38.53 +17 35 34.0 20.1 V 703 – Catalina Sky Survey MPS 443338
2012 11 12.28380 02 10 38.06 +17 35 32.7 19.5 V 703 – Catalina Sky Survey MPS 443338
2012 11 12.29235 02 10 37.59 +17 35 31.3 19.9 V 703 – Catalina Sky Survey MPS 443338
2012 11 12.30093 02 10 36.98 +17 35 29.7 19.2 V 703 – Catalina Sky Survey MPS 443338
2012 11 12.30305 02 10 37.213 +17 35 31.69 20.2 g F51 – Pan-STARRS 1, Haleakala MPS 443338
2012 11 12.31538 02 10 36.495 +17 35 30.18 20.0 g F51 – Pan-STARRS 1, Haleakala MPS 443338
2012 11 12.32230 02 10 36.074 +17 35 29.19 20.2 g F51 – Pan-STARRS 1, Haleakala MPS 443338
2012 11 12.33496 02 10 35.344 +17 35 27.59 20.1 g F51 – Pan-STARRS 1, Haleakala MPS 443338
2012 11 13.25281 02 09 43.32 +17 33 27.6 20.2   704 – Lincoln Laboratory ETS, New Mexico MPS 443338
2012 11 13.26867 02 09 42.53 +17 33 24.4 20.1   704 – Lincoln Laboratory ETS, New Mexico MPS 443338
2012 11 13.28403 02 09 41.58 +17 33 23.3 20.2   704 – Lincoln Laboratory ETS, New Mexico MPS 443338
2012 11 13.30030 02 09 40.64 +17 33 21.2 20.1   704 – Lincoln Laboratory ETS, New Mexico MPS 443338
2012 11 14.87950 02 08 13.71 +17 29 58.0 20.0   A14 – Les Engarouines Observatory MPS 443338
2012 11 14.90099 02 08 12.49 +17 29 54.7 19.6   A14 – Les Engarouines Observatory MPS 443338
2012 11 14.92291 02 08 11.28 +17 29 52.2 19.8   A14 – Les Engarouines Observatory MPS 443338
2014 01 21.52327 08 32 11.998 +32 58 20.92 20.2 r F51 – Pan-STARRS 1, Haleakala MPS 500150
2014 01 21.53416 08 32 11.256 +32 58 23.39 20.3 r F51 – Pan-STARRS 1, Haleakala MPS 500150
2015 03 25.46541 15 06 31.80 -19 27 41.5 19.7 V G96 – Mt. Lemmon Survey MPS 595051
2015 03 25.47052 15 06 31.73 -19 27 42.7 19.7 V G96 – Mt. Lemmon Survey MPS 595051
2015 03 25.47564 15 06 31.66 -19 27 44.0 19.6 V G96 – Mt. Lemmon Survey MPS 595051
2015 03 25.48076 15 06 31.60 -19 27 45.3 19.7 V G96 – Mt. Lemmon Survey MPS 595051
2015 04 14.36906 14 56 42.25 -20 32 41.4   703 – Catalina Sky Survey MPS 600516
2015 04 14.37406 14 56 41.87 -20 32 43.4 19.6 V 703 – Catalina Sky Survey MPS 600516
